Flag for Germany Weather past 2 weeks in Bremen, Bremen, Germany

Now
41 °F

Passing clouds.


Feels Like: 32 °F
Forecast: 28 / 34 °F
Wind: 20 mph from Southwest

Location: Bremen Airport

Current Time: Dec 25, 2014 at 4:50:22 AM

Latest Report: Dec 25, 2014 at 4:20 AM


Visibility: N/A

Pressure: 29.95 "Hg

Humidity: 87%

Dew point: 37 °F

Location of BremenLocation

Historic Weather in Bremen — Graph

°F

Bremen temperature yesterday

Maximum temperature yesterday: 50 °F (at 12:20 AM)
Minimum temperature yesterday: 39 °F (at 7:50 PM)
Average temperature yesterday: 45 °F

Past Weeks' High & Low Weather Summary

 TemperatureHumidityPressure
High54 °F (Dec 18, 3:50 PM)100% (Dec 12, 4:50 AM)30.24 "Hg (Dec 12, 4:50 AM)
Low32 °F (Dec 13, 8:50 PM)70% (Dec 10, 4:20 AM)29.24 "Hg (Dec 12, 11:50 AM)
Average43 °F89%29.79 "Hg
* Reported Dec 10 3:20 AM — Dec 25 3:20 AM, Bremen, Weather by CustomWeather, © 2014

Note: Actual official high and low records may vary slightly from our data, if they occured in-between our weather recording intervals... More about our weather records

Advertising

Bremen weather history for previous 24 hours

 ConditionsComfort  
Time TempWeatherWind HumidityBarometerVisibility
3:20 AM
Dec 25
41 °FPassing clouds.18 mph87%29.95 "HgN/A
2:50 AM41 °FPassing clouds.17 mph87%29.95 "HgN/A
2:20 AM41 °FPassing clouds.17 mph87%29.95 "HgN/A
1:50 AM41 °FLight rain. Passing clouds.17 mph87%29.95 "HgN/A
1:20 AM39 °FClear.17 mph87%29.95 "Hg10 mi
12:50 AM39 °FClear.16 mph87%29.95 "Hg10 mi
12:20 AM39 °FClear.17 mph87%29.95 "Hg10 mi
11:50 PM
Dec 24
39 °FPassing clouds.16 mph87%29.95 "HgN/A
11:20 PM39 °FScattered showers. Clear.16 mph87%29.95 "HgN/A
10:50 PM39 °FScattered showers. Passing clouds.12 mph87%29.95 "HgN/A
10:20 PM41 °FLight rain. Passing clouds.16 mph87%29.95 "HgN/A
9:50 PM39 °FClear.13 mph87%29.92 "Hg10 mi
9:20 PM39 °FClear.14 mph87%29.92 "Hg10 mi
8:50 PM39 °FClear.14 mph87%29.92 "Hg10 mi
8:20 PM39 °FClear.12 mph87%29.92 "Hg10 mi
7:50 PM39 °FClear.12 mph87%29.89 "Hg10 mi
7:20 PM41 °FPassing clouds.12 mph81%29.89 "HgN/A
6:50 PM41 °FPassing clouds.10 mph81%29.89 "HgN/A
6:20 PM41 °FPassing clouds.12 mph81%29.89 "HgN/A
5:50 PM41 °FPassing clouds.10 mph87%29.89 "HgN/A
5:20 PM41 °FPassing clouds.10 mph87%29.86 "HgN/A
4:50 PM43 °FPassing clouds.13 mph81%29.86 "HgN/A
4:20 PM45 °FPassing clouds.14 mph76%29.86 "HgN/A
3:20 PM46 °FScattered clouds.16 mph76%29.83 "HgN/A
2:50 PM46 °FPartly sunny.14 mph82%29.80 "HgN/A
2:20 PM46 °FPartly sunny.14 mph82%29.80 "HgN/A
1:50 PM46 °FBroken clouds.15 mph82%29.80 "HgN/A
1:20 PM48 °FPartly sunny.17 mph82%29.80 "HgN/A
12:50 PM48 °FPartly sunny.14 mph82%29.80 "HgN/A
12:20 PM48 °FPartly sunny.17 mph87%29.80 "HgN/A
11:50 AM48 °FDrizzle. Broken clouds.21 mph87%29.80 "Hg3 mi
11:20 AM48 °FDrizzle. Partly sunny.20 mph94%29.77 "Hg3 mi
10:50 AM48 °FDrizzle. Partly sunny.20 mph94%29.77 "Hg4 mi
10:20 AM48 °FDrizzle. Partly sunny.21 mph94%29.77 "Hg3 mi
9:20 AM46 °FDrizzle. Partly sunny.21 mph93%29.74 "Hg4 mi
8:50 AM46 °FDrizzle. Partly sunny.23 mph93%29.74 "Hg3 mi
8:20 AM46 °FPassing clouds.21 mph93%29.74 "Hg3 mi
7:50 AM46 °FPassing clouds.21 mph93%29.74 "Hg5 mi
7:20 AM46 °FPassing clouds.18 mph93%29.77 "Hg5 mi
6:50 AM46 °FLight rain. Passing clouds.23 mph93%29.77 "HgN/A
6:20 AM48 °FLight rain. Passing clouds.22 mph87%29.77 "HgN/A
5:50 AM48 °FLight rain. Passing clouds.21 mph87%29.77 "HgN/A
5:20 AM48 °FLight rain. Passing clouds.21 mph87%29.80 "HgN/A
4:50 AM48 °FLight rain. Passing clouds.22 mph87%29.80 "HgN/A
4:20 AM48 °FLight rain. Passing clouds.22 mph87%29.80 "HgN/A
Weather by CustomWeather, © 2014

See weather overviewHow to use our weather pages